Total_Precipitation_Accumulation
1.54 1.46 1.38 1.20 1.09 0.93 0.78 0.78 0.84 0.75 0.71 0.65 0.55 0.48 0.47 0.42 0.37 0.36 0.37 0.39 0.43 0.64 0.83 0.96 1.00 1.05 1.06 1.04 1.03 1.00 0.89 0.82 0.78 0.75 0.67 0.61 0.61 0.59 0.60 0.58 0.56 0.56 0.58
1.69 1.62 1.50 1.31 1.19 1.05 0.89 0.79 0.81 0.85 0.82 0.78 0.70 0.61 0.58 0.52 0.43 0.41 0.38 0.40 0.44 0.52 0.70 0.82 0.92 1.07 1.22 1.26 1.22 1.15 1.04 0.93 0.88 0.84 0.80 0.76 0.70 0.67 0.66 0.62 0.61 0.62 0.64
1.80 1.77 1.64 1.40 1.27 1.25 1.12 1.00 0.98 0.99 0.91 0.78 0.68 0.65 0.63 0.57 0.51 0.48 0.43 0.41 0.41 0.45 0.59 0.75 0.84 1.00 1.20 1.33 1.39 1.36 1.21 1.03 0.96 0.91 0.86 0.83 0.79 0.77 0.81 0.81 0.74 0.69 0.67
1.94 1.94 1.81 1.59 1.55 1.61 1.48 1.26 1.15 1.08 0.97 0.86 0.74 0.71 0.66 0.60 0.52 0.50 0.49 0.44 0.41 0.42 0.54 0.74 0.83 0.93 1.07 1.24 1.39 1.45 1.40 1.28 1.16 1.05 0.96 0.90 0.86 0.84 0.88 0.92 0.90 0.85 0.85
1.95 1.93 1.87 1.79 1.80 1.80 1.73 1.53 1.40 1.31 1.14 1.02 0.93 0.88 0.85 0.78 0.70 0.61 0.56 0.56 0.53 0.53 0.67 0.85 0.93 0.94 0.96 1.06 1.22 1.34 1.39 1.35 1.23 1.11 1.03 0.97 0.91 0.90 0.93 0.96 0.95 0.93 0.93
1.91 1.90 1.82 1.88 1.94 1.89 1.82 1.76 1.61 1.50 1.39 1.30 1.22 1.08 1.02 0.98 0.86 0.70 0.62 0.62 0.63 0.66 0.77 0.85 0.87 0.95 0.97 0.87 0.93 1.13 1.30 1.36 1.28 1.17 1.10 1.04 1.00 0.99 1.01 1.03 1.06 1.05 1.02
2.14 2.06 1.88 1.89 1.99 1.87 1.74 1.80 1.86 1.82 1.71 1.58 1.51 1.33 1.19 1.07 0.95 0.75 0.63 0.62 0.65 0.70 0.74 0.78 0.82 0.75 0.67 0.62 0.67 0.80 1.02 1.21 1.27 1.25 1.17 1.11 1.10 1.11 1.15 1.19 1.22 1.21 1.23
2.17 2.17 2.14 2.05 2.11 2.11 2.01 1.91 1.93 1.99 1.90 1.84 1.79 1.71 1.49 1.29 1.02 0.81 0.68 0.63 0.64 0.70 0.71 0.70 0.68 0.68 0.59 0.54 0.52 0.58 0.76 1.03 1.20 1.31 1.30 1.24 1.21 1.24 1.30 1.38 1.44 1.41 1.42
2.26 2.17 2.19 2.23 2.22 2.24 2.16 2.05 1.98 1.97 1.99 1.91 1.85 1.96 1.67 1.32 1.06 0.91 0.75 0.68 0.66 0.68 0.70 0.72 0.68 0.65 0.61 0.58 0.55 0.56 0.61 0.78 1.06 1.37 1.57 1.58 1.52 1.49 1.52 1.59 1.63 1.64 1.61
2.32 2.28 2.22 2.21 2.26 2.23 2.16 2.19 2.18 2.04 2.03 2.02 1.96 1.81 1.61 1.34 1.24 1.09 0.92 0.82 0.75 0.70 0.69 0.69 0.67 0.65 0.64 0.63 0.62 0.64 0.68 0.73 0.96 1.31 1.65 1.83 1.82 1.79 1.87 1.97 2.02 1.99 1.88
2.31 2.25 2.24 2.20 2.18 2.19 2.18 2.21 2.24 2.24 2.13 2.05 1.97 1.88 1.79 1.58 1.38 1.32 1.15 1.01 0.97 0.86 0.78 0.75 0.74 0.72 0.68 0.68 0.66 0.71 0.79 0.82 0.98 1.24 1.54 1.79 1.95 2.05 2.14 2.23 2.29 2.27 2.14
2.33 2.20 2.17 2.13 2.11 2.10 2.10 2.17 2.24 2.29 2.24 2.11 1.99 1.83 1.75 1.66 1.50 1.45 1.33 1.13 1.09 0.99 0.93 0.88 0.83 0.81 0.82 0.82 0.84 0.98 0.96 0.99 1.08 1.23 1.50 1.77 1.93 2.05 2.22 2.38 2.47 2.46 2.39
2.38 2.18 2.13 2.14 2.12 2.06 2.09 2.22 2.30 2.29 2.29 2.21 2.12 1.99 1.84 1.67 1.58 1.60 1.59 1.38 1.21 1.06 1.03 1.01 0.95 0.92 0.94 0.98 1.03 1.19 1.13 1.15 1.18 1.29 1.55 1.82 1.90 1.92 1.99 2.15 2.36 2.44 2.46
2.40 2.33 2.27 2.23 2.22 2.19 2.14 2.15 2.17 2.17 2.20 2.16 2.08 1.99 1.90 1.75 1.71 1.70 1.71 1.78 1.65 1.35 1.18 1.09 1.02 1.02 1.07 1.13 1.25 1.36 1.20 1.29 1.25 1.25 1.41 1.60 1.66 1.66 1.70 1.86 2.14 2.32 2.35
2.09 2.26 2.30 2.26 2.19 2.16 2.14 2.13 2.08 2.00 2.04 2.04 2.00 1.93 1.83 1.68 1.66 1.66 1.66 1.75 1.91 1.74 1.33 1.04 0.99 1.00 1.06 1.12 1.27 1.23 1.13 1.31 1.31 1.25 1.26 1.29 1.30 1.30 1.31 1.39 1.56 1.79 1.92
1.68 1.85 2.04 2.13 2.12 2.08 2.05 2.07 2.04 1.94 1.95 1.87 1.80 1.80 1.76 1.64 1.56 1.55 1.60 1.67 1.76 1.83 1.56 1.07 0.93 0.95 1.04 1.10 1.23 1.11 1.06 1.27 1.25 1.22 1.18 1.14 1.13 1.11 1.12 1.15 1.22 1.38 1.50
1.49 1.56 1.69 1.82 1.89 1.93 1.94 1.95 1.90 1.86 1.86 1.81 1.74 1.67 1.61 1.58 1.60 1.56 1.55 1.61 1.68 1.75 1.70 1.23 1.00 1.00 1.12 1.16 1.19 1.11 1.05 1.06 1.07 1.22 1.16 1.11 1.06 1.02 1.02 1.04 1.07 1.14 1.22
1.30 1.31 1.38 1.46 1.54 1.60 1.63 1.68 1.69 1.68 1.68 1.69 1.65 1.63 1.57 1.53 1.52 1.51 1.54 1.57 1.59 1.61 1.65 1.44 1.13 1.03 1.05 1.07 1.09 1.09 1.04 1.00 0.95 1.14 1.13 1.10 1.06 1.00 0.96 0.96 0.99 1.03 1.06
1.31 1.22 1.19 1.24 1.27 1.32 1.37 1.40 1.42 1.45 1.46 1.46 1.50 1.53 1.51 1.55 1.57 1.52 1.48 1.45 1.42 1.42 1.46 1.45 1.23 1.03 0.98 0.98 1.05 1.06 1.02 0.97 0.91 0.98 1.05 1.10 1.08 1.04 1.02 1.00 1.02 1.02 0.98
1.22 1.24 1.15 1.07 1.09 1.14 1.21 1.27 1.29 1.31 1.33 1.37 1.39 1.42 1.43 1.47 1.47 1.46 1.50 1.46 1.40 1.38 1.37 1.39 1.30 1.16 1.08 1.05 1.12 1.16 1.14 1.05 1.00 0.92 1.00 1.03 1.11 1.10 1.02 0.95 0.91 0.94 0.95
1.08 1.15 1.14 1.07 1.03 1.05 1.10 1.16 1.20 1.23 1.24 1.28 1.31 1.32 1.36 1.47 1.53 1.50 1.46 1.43 1.46 1.53 1.52 1.53 1.43 1.25 1.10 1.05 1.07 1.04 1.10 1.10 1.10 1.05 1.02 0.97 0.92 0.88 0.89 0.91 0.90 0.91 0.97
0.99 1.08 1.12 1.14 1.12 1.13 1.34 1.33 1.24 1.22 1.24 1.24 1.24 1.21 1.22 1.28 1.31 1.38 1.40 1.37 1.44 1.57 1.68 1.67 1.49 1.23 1.00 0.91 0.90 0.99 1.12 1.22 1.18 0.94 0.91 0.95 0.92 0.92 0.86 0.83 0.95 0.94 0.95
1.03 1.12 1.19 1.23 1.23 1.29 1.43 1.34 1.32 1.19 1.17 1.18 1.17 1.13 1.10 1.07 1.12 1.03 1.14 1.21 1.24 1.35 1.42 1.34 1.26 1.05 0.93 0.90 1.02 1.14 1.14 1.14 1.01 0.87 0.94 1.05 1.00 1.00 0.91 0.91 1.01 0.93 0.93
1.23 1.29 1.37 1.39 1.39 1.39 1.41 1.33 1.34 1.15 1.06 1.02 0.97 0.92 0.90 0.87 0.88 0.95 1.00 1.09 1.02 0.99 1.01 0.97 0.94 0.89 0.88 0.93 1.10 1.27 1.30 1.31 1.13 0.99 0.97 1.09 0.99 0.97 0.95 0.94 1.01 0.95 0.94
1.34 1.31 1.31 1.31 1.29 1.26 1.27 1.21 1.19 1.04 0.97 0.91 0.83 0.78 0.78 0.74 0.87 1.02 1.03 1.06 0.92 0.83 0.90 0.99 1.05 1.06 1.15 1.18 1.20 1.40 1.57 1.66 1.47 1.09 0.91 0.97 0.93 0.89 0.95 0.96 0.95 0.97 0.94
1.11 1.07 1.03 1.01 0.99 0.96 1.00 1.00 1.02 0.96 0.91 0.82 0.75 0.73 0.81 0.78 0.92 1.03 0.96 0.97 0.93 0.79 0.79 0.88 0.94 0.99 0.97 1.04 1.17 1.15 1.34 1.67 1.53 1.21 0.82 0.91 0.97 1.06 1.29 1.02 0.88 0.86 0.87